Погода в Софиевке

Украина / Запорожская область     46°59′10″N   36°40′05″E
темп.,
°C
ветер,
м/с
пор.,
м/с
влажн.,
%
обл.,
%
осадки,
мм/ч
давл.,
гПа
погр.,
м
19 сентября, вс
вс1900:00+18ююв386899 0.0 1011388
03:00+19ююв497675 0.0 1010493
06:00+19ю598499 0.0 1009586
09:00+20ю6883100 1.2 1009752
12:00+18юз5890100 3.0 1009500
15:00+19юз3475100 8.1 1009458
18:00+18ююз23788 0.0 1009285
21:00+16ююз239111 0.7 100932
20 сентября, пн
пн2000:00+15зюз23863 0.1 100927
03:00+16з487134 0.1 1010179
06:00+14зюз378095 0.0 1010128
09:00+17зсз57655 0.0 1011529
12:00+21з564241 0.0 10121139
15:00+22зюз683921 0.0 10111636
18:00+19з46475 0.0 1012383
21:00+16зюз3455100 0.0 101372
21 сентября, вт
вт2100:00+13сз375993 0.0 1014156
03:00+12сз3461100 0.0 101483
06:00+13ссз2559100 0.0 1013234
09:00+12з2371100 0.6 1014366
12:00+12зсз4574100 1.0 1014612
15:00+13зсз46547 1.1 1014862
18:00+14сз710464 0.0 1014626
21:00+9сз610705 0.0 1016467
22 сентября, ср
ср2200:00+8зсз587726 0.0 1017475
03:00+9зсз477493 0.0 1017820
06:00+9зсз3674100 0.0 1017673
09:00+9зсз3471100 0.0 1017768
12:00+11зсз2365100 0.0 10171008
15:00+12зсз3358100 0.1 10161316
18:00+12ссз225996 0.0 1016708
21:00+11ссв2364100 0.0 1016170
23 сентября, чт
чт2300:00+10ссв1167100 0.0 101545
03:00+10ссв2266100 0.0 1014146
06:00+10ссв2470100 0.0 1013160
09:00+12ссв2265100 0.0 1013509
12:00+15з1248100 0.0 10121564
15:00+16юз343795 0.0 10121973
18:00+14сз454623 0.0 1012456
21:00+10ссз59725 0.0 1014245